Location: Unspecified
(29.7001°N, 0.0000°E)
Time: 04:32:36
(UTC+00:00)

Meteor 1-24 Rocket - Visible Passes

Search period start: 04 April 2026 00:00
Search period end: 14 April 2026 00:00
Orbit: 788 x 926 km, 81.3° (Epoch: 29 March)

Date Brightness Start Highest point End Pass type
(mag) Time Alt. Az. Time Alt. Az. Time Alt. Az.
4 Apr 4.2 20:24:32 10° N 20:28:27 45° NNE 20:28:27 45° NNE visible
5 Apr 3.8 20:14:26 10° N 20:19:07 53° NE 20:19:07 53° NE visible
5 Apr 6.4 22:00:10 10° WNW 22:01:18 12° WNW 22:01:18 12° WNW visible
6 Apr 3.7 20:04:20 10° N 20:09:39 54° E 20:09:50 54° E visible
6 Apr 6.3 21:49:44 10° WNW 21:52:02 13° W 21:52:02 13° W visible
7 Apr 3.8 19:54:15 10° N 19:59:33 51° E 20:00:37 45° ESE visible
7 Apr 6.2 21:39:21 10° WNW 21:42:06 14° W 21:42:49 14° W visible
8 Apr 3.9 19:44:10 10° N 19:49:26 48° E 19:51:30 33° SE visible
8 Apr 6.2 21:29:01 10° NW 21:32:01 15° W 21:33:42 13° WSW visible
9 Apr 4.0 19:34:04 10° N 19:39:20 46° E 19:42:28 23° SE visible
9 Apr 6.2 21:18:43 10° NW 21:21:56 16° W 21:24:41 12° WSW visible
10 Apr 4.0 19:23:59 10° N 19:29:13 43° E 19:33:33 15° SSE visible
10 Apr 6.1 21:08:25 10° NW 21:11:51 17° W 21:15:22 10° SW visible
11 Apr 4.1 19:13:54 10° N 19:19:06 41° E 19:24:28 10° SSE visible
11 Apr 6.1 20:58:07 10° NW 21:01:46 18° W 21:05:29 10° SW visible
12 Apr 4.2 19:03:50 10° N 19:09:00 39° E 19:14:18 10° SSE visible
12 Apr 6.1 20:47:52 10° NW 20:51:41 19° W 20:55:35 10° SW visible
13 Apr 4.3 18:53:45 10° NNE 18:58:53 37° E 19:04:09 10° SE visible
13 Apr 6.1 20:37:37 10° NW 20:41:36 20° W 20:45:41 10° SW visible
